DW9525 Weather Reports


time (UTC)temp
F
wind
direction
speed
knots
gust
knots
rain 1hr
in
rain 24hr
in
rain mn
in
humidity
%
barometer
mb
20260508054536 61 220 0.0 0.0 0.00 0.00 0.00 74 1024.3
20260508053034 61 134 0.0 0.0 0.00 0.00 0.00 74 1024.4
20260508051531 61 134 0.0 0.0 0.00 0.00 0.00 74 1024.4
20260508050033 61 177 0.0 0.0 0.00 0.00 0.00 74 1024.3
20260508044530 61 194 0.0 0.0 0.00 0.00 0.00 73 1024.3
20260508043030 61 190 0.0 0.0 0.00 0.00 0.00 73 1024.1
20260508041529 60 190 0.0 0.0 0.00 0.00 0.00 73 1023.9
20260508040030 60 190 0.0 0.0 0.00 0.00 0.00 73 1023.7
20260508034541 60 190 0.0 0.0 0.00 0.00 0.00 73 1023.6
20260508033030 60 190 0.0 0.0 0.00 0.00 0.00 73 1023.3
20260508031535 61 194 0.0 0.0 0.00 0.00 0.00 73 1023.1
20260508030007 61 193 0.0 0.0 0.00 0.00 0.00 73 1022.8
20260508024516 62 194 0.0 0.0 0.00 0.00 0.00 72 1022.7
20260508023055 62 224 0.0 0.0 0.00 0.00 0.00 72 1022.4
20260508021604 63 210 0.0 0.0 0.00 0.00 0.00 72 1022.4
20260508020057 63 219 0.0 0.0 0.00 0.00 0.00 71 1022.2
20260508014556 64 219 0.0 0.0 0.00 0.00 0.00 71 1022.2
20260508013053 65 221 0.0 0.0 0.00 0.00 0.00 72 1022.2
20260508011602 65 216 0.0 0.0 0.00 0.00 0.00 72 1022.2
20260508010056 66 185 0.0 0.0 0.00 0.00 0.00 72 1022.0
20260508004558 67 188 0.0 0.0 0.00 0.00 0.00 72 1022.0
20260508003033 67 231 0.0 0.0 0.00 0.00 0.00 72 1021.9
20260508001542 68 221 0.0 0.0 0.00 0.00 0.00 72 1021.9
20260508000021 69 212 0.0 0.0 0.00 0.00 0.00 71 1021.9
20260507234521 69 211 0.0 0.0 0.00 0.00 0.00 71 1021.9
20260507233020 70 226 0.0 0.0 0.00 0.00 0.00 70 1021.9
20260507231522 70 233 0.0 0.0 0.00 0.00 0.00 69 1021.9
20260507230018 70 235 0.0 0.0 0.00 0.00 0.00 69 1021.9
20260507224519 70 221 0.0 0.0 0.00 0.00 0.00 69 1022.1
20260507223017 71 285 0.0 0.0 0.00 0.00 0.00 68 1022.2
20260507221515 71 240 0.0 0.0 0.00 0.00 0.00 68 1022.3
20260507220004 71 150 0.0 0.0 0.00 0.00 0.00 67 1022.4
20260507214502 72 291 0.0 0.0 0.00 0.00 0.00 67 1022.6
20260507213001 72 262 0.0 0.0 0.00 0.00 0.00 67 1022.8
20260507211605 72 255 0.0 0.0 0.00 0.00 0.00 67 1022.7
20260507211501 72 222 0.0 0.0 0.00 0.00 0.00 67 1022.8
20260507210111 72 288 0.0 0.0 0.00 0.00 0.00 68 1022.8
20260507204601 72 219 0.0 0.0 0.00 0.00 0.00 66 1022.9
20260507203127 73 228 0.0 0.0 0.00 0.00 0.00 65 1022.8
20260507201557 73 241 0.0 0.0 0.00 0.00 0.00 65 1022.9
20260507200045 73 315 0.0 0.0 0.00 0.00 0.00 63 1022.9
20260507194553 73 316 0.0 0.0 0.00 0.00 0.00 64 1023.1
20260507193041 73 309 0.0 0.0 0.00 0.00 0.00 64 1023.2
20260507191539 73 347 0.0 0.0 0.00 0.00 0.00 64 1023.4
20260507190035 72 315 0.0 0.0 0.00 0.00 0.00 65 1023.5
20260507184534 72 221 0.0 0.0 0.00 0.00 0.00 66 1023.8
20260507183029 72 131 0.0 0.0 0.00 0.00 0.00 67 1023.8
20260507181526 71 202 0.0 0.0 0.00 0.00 0.00 67 1023.8
20260507180012 70 232 0.0 0.0 0.00 0.00 0.00 69 1023.8
20260507174508 69 310 0.0 0.0 0.00 0.00 0.00 70 1024.0
20260507173008 69 320 0.0 0.0 0.00 0.00 0.00 70 1024.1
20260507171601 68 341 0.0 0.0 0.00 0.00 0.00 71 1024.1
20260507170058 69 341 0.0 0.0 0.00 0.00 0.00 70 1024.2
20260507164552 67 316 0.0 0.0 0.00 0.00 0.00 70 1024.3
20260507163048 67 323 0.0 0.0 0.00 0.00 0.00 71 1024.3
20260507161549 66 356 0.0 0.0 0.00 0.00 0.00 72 1024.4
20260507160047 65 2 0.0 0.0 0.00 0.00 0.00 73 1024.4
20260507154526 63 72 0.0 0.0 0.00 0.00 0.00 73 1024.6
20260507153019 63 169 0.0 0.0 0.00 0.00 0.00 73 1024.8
20260507151515 60 169 0.0 0.0 0.00 0.00 0.00 73 1024.9
20260507150014 58 169 0.0 0.0 0.00 0.00 0.00 74 1024.9
20260507144506 55 169 0.0 0.0 0.00 0.00 0.00 74 1024.8
20260507143001 53 169 0.0 0.0 0.00 0.00 0.00 74 1024.6
20260507141602 52 169 0.0 0.0 0.00 0.00 0.00 74 1024.6
20260507140053 51 169 0.0 0.0 0.00 0.00 0.00 74 1024.5
20260507134537 50 169 0.0 0.0 0.00 0.00 0.00 74 1024.4
20260507133059 48 206 0.0 0.0 0.00 0.00 0.00 74 1024.1
20260507131529 48 206 0.0 0.0 0.00 0.00 0.00 75 1024.1
20260507130029 49 206 0.0 0.0 0.00 0.00 0.00 74 1024.1
20260507124528 49 220 0.0 0.0 0.00 0.00 0.00 74 1024.0
20260507123035 49 220 0.0 0.0 0.00 0.00 0.00 74 1023.9
20260507121525 49 226 0.0 0.0 0.00 0.00 0.00 75 1023.9
20260507120024 49 226 0.0 0.0 0.00 0.00 0.00 75 1024.0
20260507114511 49 352 0.0 0.0 0.00 0.00 0.00 75 1024.0
20260507113012 49 352 0.0 0.0 0.00 0.00 0.00 75 1024.0
20260507111509 49 352 0.0 0.0 0.00 0.00 0.00 75 1024.2
20260507110008 49 352 0.0 0.0 0.00 0.00 0.00 75 1024.2
20260507104507 49 353 0.0 0.0 0.00 0.00 0.00 75 1024.2
20260507103003 50 353 0.0 0.0 0.00 0.00 0.00 75 1024.2
20260507101503 51 352 0.0 0.0 0.00 0.00 0.00 75 1024.2
20260507100100 51 346 0.0 0.0 0.00 0.00 0.00 74 1024.2
20260507094553 50 345 0.0 0.0 0.00 0.00 0.00 75 1024.5
20260507093041 51 345 0.0 0.0 0.00 0.00 0.00 75 1024.5
20260507091533 51 345 0.0 0.0 0.00 0.00 0.00 74 1024.7
20260507090030 51 345 0.0 0.0 0.00 0.00 0.00 74 1024.9
20260507084529 51 323 0.0 0.0 0.00 0.00 0.00 74 1025.0
20260507083030 51 323 0.0 0.0 0.00 0.00 0.00 74 1025.2
20260507081536 51 324 0.0 0.0 0.00 0.00 0.00 74 1025.3
20260507080028 52 324 0.0 0.0 0.00 0.00 0.00 74 1025.4
20260507074528 53 324 0.0 0.0 0.00 0.00 0.00 74 1025.1
20260507073027 52 324 0.0 0.0 0.00 0.00 0.00 74 1025.1
20260507071513 53 324 0.0 0.0 0.00 0.00 0.00 73 1025.2
20260507070017 53 324 0.0 0.0 0.00 0.00 0.00 73 1025.3
20260507064555 54 324 0.0 0.0 0.00 0.00 0.00 73 1025.4
20260507063050 54 325 0.0 0.0 0.00 0.00 0.00 73 1025.5
20260507061539 54 325 0.0 0.0 0.00 0.00 0.00 73 1025.3
20260507060038 55 325 0.0 0.0 0.00 0.00 0.00 73 1025.5